Year,Month,Day,Hour,Minute,Value (Times are PST for temperature in C)
2015,04,16,00,00,5.70
2015,04,16,00,01,5.70
2015,04,16,00,02,5.70
2015,04,16,00,03,5.70
2015,04,16,00,04,5.70
2015,04,16,00,05,5.60
2015,04,16,00,06,5.60
2015,04,16,00,07,5.60
2015,04,16,00,08,5.50
2015,04,16,00,09,5.50
2015,04,16,00,10,5.50
2015,04,16,00,11,5.50
2015,04,16,00,12,5.40
2015,04,16,00,13,5.40
2015,04,16,00,14,5.40
2015,04,16,00,15,5.40
2015,04,16,00,16,5.40
2015,04,16,00,17,5.40
2015,04,16,00,18,5.40
2015,04,16,00,19,5.30
2015,04,16,00,20,5.30
2015,04,16,00,21,5.30
2015,04,16,00,22,5.30
2015,04,16,00,23,5.30
2015,04,16,00,24,5.30
2015,04,16,00,25,5.30
2015,04,16,00,26,5.30
2015,04,16,00,27,5.20
2015,04,16,00,28,5.20
2015,04,16,00,29,5.20
2015,04,16,00,30,5.20
2015,04,16,00,31,5.20
2015,04,16,00,32,5.20
2015,04,16,00,33,5.10
2015,04,16,00,34,5.10
2015,04,16,00,35,5.10
2015,04,16,00,36,5.10
2015,04,16,00,37,5.10
2015,04,16,00,38,5.10
2015,04,16,00,39,5.10
2015,04,16,00,40,5.00
2015,04,16,00,41,4.90
2015,04,16,00,42,4.90
2015,04,16,00,43,4.90
2015,04,16,00,44,4.90
2015,04,16,00,45,4.90
2015,04,16,00,46,4.90
2015,04,16,00,47,4.90
2015,04,16,00,48,4.80
2015,04,16,00,49,4.80
2015,04,16,00,50,4.80
2015,04,16,00,51,4.80
2015,04,16,00,52,4.80
2015,04,16,00,53,4.80
2015,04,16,00,54,4.80
2015,04,16,00,55,4.80
2015,04,16,00,56,4.80
2015,04,16,00,57,4.80
2015,04,16,00,58,4.80
2015,04,16,00,59,4.80
2015,04,16,01,00,4.80
2015,04,16,01,01,4.80
2015,04,16,01,02,4.80
2015,04,16,01,03,4.80
2015,04,16,01,04,4.80
2015,04,16,01,05,4.80
2015,04,16,01,06,4.80
2015,04,16,01,07,4.80
2015,04,16,01,08,4.70
2015,04,16,01,09,4.70
2015,04,16,01,10,4.70
2015,04,16,01,11,4.70
2015,04,16,01,12,4.60
2015,04,16,01,13,4.60
2015,04,16,01,14,4.60
2015,04,16,01,15,4.60
2015,04,16,01,16,4.60
2015,04,16,01,17,4.60
2015,04,16,01,18,4.60
2015,04,16,01,19,4.60
2015,04,16,01,20,4.60
2015,04,16,01,21,4.60
2015,04,16,01,22,4.60
2015,04,16,01,23,4.60
2015,04,16,01,24,4.60
2015,04,16,01,25,4.60
2015,04,16,01,26,4.60
2015,04,16,01,27,4.50
2015,04,16,01,28,4.50
2015,04,16,01,29,4.50
2015,04,16,01,30,4.50
2015,04,16,01,31,4.40
2015,04,16,01,32,4.40
2015,04,16,01,33,4.40
2015,04,16,01,34,4.40
2015,04,16,01,35,4.40
2015,04,16,01,36,4.40
2015,04,16,01,37,4.40
2015,04,16,01,38,4.40
2015,04,16,01,39,4.30
2015,04,16,01,40,4.40
2015,04,16,01,41,4.40
2015,04,16,01,42,4.40
2015,04,16,01,43,4.40
2015,04,16,01,44,4.40
2015,04,16,01,45,4.40
2015,04,16,01,46,4.40
2015,04,16,01,47,4.50
2015,04,16,01,48,4.50
2015,04,16,01,49,4.50
2015,04,16,01,50,4.50
2015,04,16,01,51,4.60
2015,04,16,01,52,4.60
2015,04,16,01,53,4.50
2015,04,16,01,54,4.50
2015,04,16,01,55,4.50
2015,04,16,01,56,4.50
2015,04,16,01,57,4.50
2015,04,16,01,58,4.50
2015,04,16,01,59,4.50
2015,04,16,02,00,4.50
2015,04,16,02,01,4.50
2015,04,16,02,02,4.40
2015,04,16,02,03,4.30
2015,04,16,02,04,4.20
2015,04,16,02,05,4.20
2015,04,16,02,06,4.20
2015,04,16,02,07,4.20
2015,04,16,02,08,4.20
2015,04,16,02,09,4.20
2015,04,16,02,10,4.20
2015,04,16,02,11,4.20
2015,04,16,02,12,4.20
2015,04,16,02,13,4.20
2015,04,16,02,14,4.20
2015,04,16,02,15,4.20
2015,04,16,02,16,4.20
2015,04,16,02,17,4.20
2015,04,16,02,18,4.20
2015,04,16,02,19,4.30
2015,04,16,02,20,4.30
2015,04,16,02,21,4.30
2015,04,16,02,22,4.20
2015,04,16,02,23,4.20
2015,04,16,02,24,4.20
2015,04,16,02,25,4.20
2015,04,16,02,26,4.20
2015,04,16,02,27,4.20
2015,04,16,02,28,4.20
2015,04,16,02,29,4.20
2015,04,16,02,30,4.20
2015,04,16,02,31,4.10
2015,04,16,02,32,4.10
2015,04,16,02,33,4.10
2015,04,16,02,34,4.10
2015,04,16,02,35,4.10
2015,04,16,02,36,4.10
2015,04,16,02,37,4.10
2015,04,16,02,38,4.10
2015,04,16,02,39,4.10
2015,04,16,02,40,4.10
2015,04,16,02,41,4.10
2015,04,16,02,42,4.10
2015,04,16,02,43,4.10
2015,04,16,02,44,4.10
2015,04,16,02,45,4.10
2015,04,16,02,46,4.10
2015,04,16,02,47,4.10
2015,04,16,02,48,4.10
2015,04,16,02,49,4.00
2015,04,16,02,50,4.00
2015,04,16,02,51,4.00
2015,04,16,02,52,3.90
2015,04,16,02,53,3.90
2015,04,16,02,54,3.80
2015,04,16,02,55,3.80
2015,04,16,02,56,3.80
2015,04,16,02,57,3.80
2015,04,16,02,58,3.80
2015,04,16,02,59,3.80
2015,04,16,03,00,3.80
2015,04,16,03,01,3.80
2015,04,16,03,02,3.80
2015,04,16,03,03,3.80
2015,04,16,03,04,3.80
2015,04,16,03,05,3.80
2015,04,16,03,06,3.80
2015,04,16,03,07,3.80
2015,04,16,03,08,3.80
2015,04,16,03,09,3.80
2015,04,16,03,10,3.80
2015,04,16,03,11,3.80
2015,04,16,03,12,3.80
2015,04,16,03,13,3.80
2015,04,16,03,14,3.80
2015,04,16,03,15,3.80
2015,04,16,03,16,3.80
2015,04,16,03,17,3.80
2015,04,16,03,18,3.80
2015,04,16,03,19,3.80
2015,04,16,03,20,3.90
2015,04,16,03,21,3.90
2015,04,16,03,22,3.90
2015,04,16,03,23,3.90
2015,04,16,03,24,3.90
2015,04,16,03,25,3.90
2015,04,16,03,26,3.90
2015,04,16,03,27,3.90
2015,04,16,03,28,3.90
2015,04,16,03,29,3.90
2015,04,16,03,30,3.90
2015,04,16,03,31,3.90
2015,04,16,03,32,3.90
2015,04,16,03,33,3.90
2015,04,16,03,34,3.90
2015,04,16,03,35,3.90
2015,04,16,03,36,3.90
2015,04,16,03,37,3.90
2015,04,16,03,38,3.90
2015,04,16,03,39,3.90
2015,04,16,03,40,3.90
2015,04,16,03,41,3.90
2015,04,16,03,42,3.90
2015,04,16,03,43,3.90
2015,04,16,03,44,3.90
2015,04,16,03,45,3.90
2015,04,16,03,46,3.80
2015,04,16,03,47,3.90
2015,04,16,03,48,3.90
2015,04,16,03,49,3.80
2015,04,16,03,50,3.80
2015,04,16,03,51,3.80
2015,04,16,03,52,3.80
2015,04,16,03,53,3.80
2015,04,16,03,54,3.80
2015,04,16,03,55,3.80
2015,04,16,03,56,3.80
2015,04,16,03,57,3.80
2015,04,16,03,58,3.90
2015,04,16,03,59,4.00
2015,04,16,04,00,4.00
2015,04,16,04,01,4.00
2015,04,16,04,02,4.10
2015,04,16,04,03,4.10
2015,04,16,04,04,4.10
2015,04,16,04,05,4.10
2015,04,16,04,06,4.10
2015,04,16,04,07,4.10
2015,04,16,04,08,4.10
2015,04,16,04,09,4.10
2015,04,16,04,10,4.10
2015,04,16,04,11,4.10
2015,04,16,04,12,4.10
2015,04,16,04,13,4.00
2015,04,16,04,14,4.00
2015,04,16,04,15,4.00
2015,04,16,04,16,4.00
2015,04,16,04,17,4.00
2015,04,16,04,18,4.00
2015,04,16,04,19,4.00
2015,04,16,04,20,4.00
2015,04,16,04,21,4.10
2015,04,16,04,22,4.10
2015,04,16,04,23,4.10
2015,04,16,04,24,4.00
2015,04,16,04,25,4.00
2015,04,16,04,26,4.00
2015,04,16,04,27,4.00
2015,04,16,04,28,4.00
2015,04,16,04,29,4.00
2015,04,16,04,30,3.90
2015,04,16,04,31,3.90
2015,04,16,04,32,3.90
2015,04,16,04,33,3.90
2015,04,16,04,34,3.80
2015,04,16,04,35,3.80
2015,04,16,04,36,3.80
2015,04,16,04,37,3.80
2015,04,16,04,38,3.80
2015,04,16,04,39,3.80
2015,04,16,04,40,3.80
2015,04,16,04,41,3.80
2015,04,16,04,42,3.70
2015,04,16,04,43,3.70
2015,04,16,04,44,3.70
2015,04,16,04,45,3.70
2015,04,16,04,46,3.60
2015,04,16,04,47,3.60
2015,04,16,04,48,3.60
2015,04,16,04,49,3.60
2015,04,16,04,50,3.60
2015,04,16,04,51,3.60
2015,04,16,04,52,3.60
2015,04,16,04,53,3.50
2015,04,16,04,54,3.50
2015,04,16,04,55,3.50
2015,04,16,04,56,3.50
2015,04,16,04,57,3.50
2015,04,16,04,58,3.50
2015,04,16,04,59,3.50
2015,04,16,05,00,3.50
2015,04,16,05,01,3.40
2015,04,16,05,02,3.40
2015,04,16,05,03,3.40
2015,04,16,05,04,3.40
2015,04,16,05,05,3.40
2015,04,16,05,06,3.40
2015,04,16,05,07,3.40
2015,04,16,05,08,3.30
2015,04,16,05,09,3.30
2015,04,16,05,10,3.30
2015,04,16,05,11,3.30
2015,04,16,05,12,3.30
2015,04,16,05,13,3.30
2015,04,16,05,14,3.30
2015,04,16,05,15,3.30
2015,04,16,05,16,3.30
2015,04,16,05,17,3.30
2015,04,16,05,18,3.30
2015,04,16,05,19,3.30
2015,04,16,05,20,3.30
2015,04,16,05,21,3.20
2015,04,16,05,22,3.20
2015,04,16,05,23,3.20
2015,04,16,05,24,3.20
2015,04,16,05,25,3.30
2015,04,16,05,26,3.30
2015,04,16,05,27,3.30
2015,04,16,05,28,3.30
2015,04,16,05,29,3.30
2015,04,16,05,30,3.30
2015,04,16,05,31,3.20
2015,04,16,05,32,3.20
2015,04,16,05,33,3.20
2015,04,16,05,34,3.20
2015,04,16,05,35,3.30
2015,04,16,05,36,3.30
2015,04,16,05,37,3.30
2015,04,16,05,38,3.20
2015,04,16,05,39,3.20
2015,04,16,05,40,3.20
2015,04,16,05,41,3.20
2015,04,16,05,42,3.20
2015,04,16,05,43,3.20
2015,04,16,05,44,3.10
2015,04,16,05,45,3.10
2015,04,16,05,46,3.10
2015,04,16,05,47,3.10
2015,04,16,05,48,3.10
2015,04,16,05,49,3.10
2015,04,16,05,50,3.10
2015,04,16,05,51,3.00
2015,04,16,05,52,2.90
2015,04,16,05,53,2.90
2015,04,16,05,54,2.90
2015,04,16,05,55,2.90
2015,04,16,05,56,2.90
2015,04,16,05,57,2.90
2015,04,16,05,58,2.90
2015,04,16,05,59,2.90
2015,04,16,06,00,2.90
2015,04,16,06,01,2.90
2015,04,16,06,02,2.90
2015,04,16,06,03,2.90
2015,04,16,06,04,2.90
2015,04,16,06,05,2.90
2015,04,16,06,06,2.90
2015,04,16,06,07,2.90
2015,04,16,06,08,2.90
2015,04,16,06,09,2.90
2015,04,16,06,10,2.90
2015,04,16,06,11,2.90
2015,04,16,06,12,2.90
2015,04,16,06,13,2.90
2015,04,16,06,14,2.90
2015,04,16,06,15,2.90
2015,04,16,06,16,2.90
2015,04,16,06,17,2.90
2015,04,16,06,18,2.90
2015,04,16,06,19,2.90
2015,04,16,06,20,2.90
2015,04,16,06,21,2.90
2015,04,16,06,22,3.00
2015,04,16,06,23,3.10
2015,04,16,06,24,3.10
2015,04,16,06,25,3.00
2015,04,16,06,26,2.90
2015,04,16,06,27,2.90
2015,04,16,06,28,2.90
2015,04,16,06,29,2.90
2015,04,16,06,30,2.90
2015,04,16,06,31,2.90
2015,04,16,06,32,2.90
2015,04,16,06,33,2.90
2015,04,16,06,34,2.90
2015,04,16,06,35,2.90
2015,04,16,06,36,2.90
2015,04,16,06,37,2.90
2015,04,16,06,38,2.90
2015,04,16,06,39,2.90
2015,04,16,06,40,2.90
2015,04,16,06,41,2.90
2015,04,16,06,42,2.90
2015,04,16,06,43,2.90
2015,04,16,06,44,2.90
2015,04,16,06,45,3.00
2015,04,16,06,46,3.10
2015,04,16,06,47,3.10
2015,04,16,06,48,3.10
2015,04,16,06,49,3.10
2015,04,16,06,50,3.10
2015,04,16,06,51,3.20
2015,04,16,06,52,3.30
2015,04,16,06,53,3.30
2015,04,16,06,54,3.30
2015,04,16,06,55,3.30
2015,04,16,06,56,3.30
2015,04,16,06,57,3.30
2015,04,16,06,58,3.30
2015,04,16,06,59,3.30
2015,04,16,07,00,3.40
2015,04,16,07,01,3.50
2015,04,16,07,02,3.70
2015,04,16,07,03,4.00
2015,04,16,07,04,4.30
2015,04,16,07,05,4.50
2015,04,16,07,06,4.70
2015,04,16,07,07,4.80
2015,04,16,07,08,4.90
2015,04,16,07,09,4.90
2015,04,16,07,10,4.80
2015,04,16,07,11,4.80
2015,04,16,07,12,4.70
2015,04,16,07,13,4.60
2015,04,16,07,14,4.50
2015,04,16,07,15,4.50
2015,04,16,07,16,4.50
2015,04,16,07,17,4.50
2015,04,16,07,18,4.50
2015,04,16,07,19,4.50
2015,04,16,07,20,4.50
2015,04,16,07,21,4.60
2015,04,16,07,22,4.50
2015,04,16,07,23,4.60
2015,04,16,07,24,4.60
2015,04,16,07,25,4.60
2015,04,16,07,26,4.60
2015,04,16,07,27,4.70
2015,04,16,07,28,4.70
2015,04,16,07,29,4.80
2015,04,16,07,30,4.90
2015,04,16,07,31,5.00
2015,04,16,07,32,5.10
2015,04,16,07,33,5.10
2015,04,16,07,34,5.20
2015,04,16,07,35,5.30
2015,04,16,07,36,5.30
2015,04,16,07,37,5.40
2015,04,16,07,38,5.40
2015,04,16,07,39,5.50
2015,04,16,07,40,5.60
2015,04,16,07,41,5.60
2015,04,16,07,42,5.70
2015,04,16,07,43,5.90
2015,04,16,07,44,6.00
2015,04,16,07,45,6.20
2015,04,16,07,46,6.30
2015,04,16,07,47,6.40
2015,04,16,07,48,6.60
2015,04,16,07,49,6.60
2015,04,16,07,50,6.70
2015,04,16,07,51,6.80
2015,04,16,07,52,6.80
2015,04,16,07,53,7.00
2015,04,16,07,54,7.00
2015,04,16,07,55,7.10
2015,04,16,07,56,7.20
2015,04,16,07,57,7.20
2015,04,16,07,58,7.30
2015,04,16,07,59,7.30
2015,04,16,08,00,7.40
2015,04,16,08,01,7.50
2015,04,16,08,02,7.50
2015,04,16,08,03,7.60
2015,04,16,08,04,7.60
2015,04,16,08,05,7.70
2015,04,16,08,06,7.80
2015,04,16,08,07,7.80
2015,04,16,08,08,7.80
2015,04,16,08,09,7.80
2015,04,16,08,10,7.80
2015,04,16,08,11,7.80
2015,04,16,08,12,7.80
2015,04,16,08,13,7.80
2015,04,16,08,14,7.80
2015,04,16,08,15,7.90
2015,04,16,08,16,7.90
2015,04,16,08,17,8.00
2015,04,16,08,18,8.10
2015,04,16,08,19,8.20
2015,04,16,08,20,8.30
2015,04,16,08,21,8.40
2015,04,16,08,22,8.40
2015,04,16,08,23,8.50
2015,04,16,08,24,8.50
2015,04,16,08,25,8.50
2015,04,16,08,26,8.60
2015,04,16,08,27,8.60
2015,04,16,08,28,8.50
2015,04,16,08,29,8.50
2015,04,16,08,30,8.40
2015,04,16,08,31,8.40
2015,04,16,08,32,8.40
2015,04,16,08,33,8.40
2015,04,16,08,34,8.40
2015,04,16,08,35,8.40
2015,04,16,08,36,8.40
2015,04,16,08,37,8.50
2015,04,16,08,38,8.50
2015,04,16,08,39,8.60
2015,04,16,08,40,8.60
2015,04,16,08,41,8.70
2015,04,16,08,42,8.70
2015,04,16,08,43,8.70
2015,04,16,08,44,8.70
2015,04,16,08,45,8.80
2015,04,16,08,46,8.80
2015,04,16,08,47,8.90
2015,04,16,08,48,8.90
2015,04,16,08,49,9.00
2015,04,16,08,50,9.00
2015,04,16,08,51,9.10
2015,04,16,08,52,9.20
2015,04,16,08,53,9.20
2015,04,16,08,54,9.20
2015,04,16,08,55,9.20
2015,04,16,08,56,9.20
2015,04,16,08,57,9.20
2015,04,16,08,58,9.30
2015,04,16,08,59,9.40
2015,04,16,09,00,9.40
2015,04,16,09,01,9.40
2015,04,16,09,02,9.40
2015,04,16,09,03,9.30
2015,04,16,09,04,9.30
2015,04,16,09,05,9.30
2015,04,16,09,06,9.20
2015,04,16,09,07,9.20
2015,04,16,09,08,9.20
2015,04,16,09,09,9.20
2015,04,16,09,10,9.10
2015,04,16,09,11,9.00
2015,04,16,09,12,9.00
2015,04,16,09,13,9.10
2015,04,16,09,14,9.10
2015,04,16,09,15,9.20
2015,04,16,09,16,9.20
2015,04,16,09,17,9.20
2015,04,16,09,18,9.10
2015,04,16,09,19,9.10
2015,04,16,09,20,9.10
2015,04,16,09,21,9.20
2015,04,16,09,22,9.20
2015,04,16,09,23,9.20
2015,04,16,09,24,9.20
2015,04,16,09,25,9.20
2015,04,16,09,26,9.30
2015,04,16,09,27,9.30
2015,04,16,09,28,9.40
2015,04,16,09,29,9.40
2015,04,16,09,30,9.30
2015,04,16,09,31,9.30
2015,04,16,09,32,9.40
2015,04,16,09,33,9.40
2015,04,16,09,34,9.40
2015,04,16,09,35,9.50
2015,04,16,09,36,9.60
2015,04,16,09,37,9.60
2015,04,16,09,38,9.70
2015,04,16,09,39,9.80
2015,04,16,09,40,9.80
2015,04,16,09,41,9.90
2015,04,16,09,42,10.00
2015,04,16,09,43,10.10
2015,04,16,09,44,10.10
2015,04,16,09,45,10.10
2015,04,16,09,46,10.20
2015,04,16,09,47,10.20
2015,04,16,09,48,10.20
2015,04,16,09,49,10.20
2015,04,16,09,50,10.10
2015,04,16,09,51,10.20
2015,04,16,09,52,10.20
2015,04,16,09,53,10.30
2015,04,16,09,54,10.20
2015,04,16,09,55,10.30
2015,04,16,09,56,10.40
2015,04,16,09,57,10.40
2015,04,16,09,58,10.50
2015,04,16,09,59,10.50
2015,04,16,10,00,10.40
2015,04,16,10,01,10.40
2015,04,16,10,02,10.40
2015,04,16,10,03,10.50
2015,04,16,10,04,10.60
2015,04,16,10,05,10.60
2015,04,16,10,06,10.60
2015,04,16,10,07,10.60
2015,04,16,10,08,10.60
2015,04,16,10,09,10.60
2015,04,16,10,10,10.70
2015,04,16,10,11,10.60
2015,04,16,10,12,10.60
2015,04,16,10,13,10.60
2015,04,16,10,14,10.60
2015,04,16,10,15,10.60
2015,04,16,10,16,10.70
2015,04,16,10,17,10.70
2015,04,16,10,18,10.70
2015,04,16,10,19,10.60
2015,04,16,10,20,10.60
2015,04,16,10,21,10.70
2015,04,16,10,22,10.80
2015,04,16,10,23,10.90
2015,04,16,10,24,11.00
2015,04,16,10,25,11.10
2015,04,16,10,26,11.10
2015,04,16,10,27,11.10
2015,04,16,10,28,11.10
2015,04,16,10,29,11.10
2015,04,16,10,30,11.10
2015,04,16,10,31,11.10
2015,04,16,10,32,11.20
2015,04,16,10,33,11.20
2015,04,16,10,34,11.20
2015,04,16,10,35,11.30
2015,04,16,10,36,11.20
2015,04,16,10,37,11.20
2015,04,16,10,38,11.20
2015,04,16,10,39,11.10
2015,04,16,10,40,11.10
2015,04,16,10,41,11.10
2015,04,16,10,42,11.10
2015,04,16,10,43,11.10
2015,04,16,10,44,11.10
2015,04,16,10,45,11.10
2015,04,16,10,46,11.10
2015,04,16,10,47,11.10
2015,04,16,10,48,11.10
2015,04,16,10,49,11.20
2015,04,16,10,50,11.20
2015,04,16,10,51,11.30
2015,04,16,10,52,11.40
2015,04,16,10,53,11.40
2015,04,16,10,54,11.40
2015,04,16,10,55,11.50
2015,04,16,10,56,11.60
2015,04,16,10,57,11.70
2015,04,16,10,58,11.70
2015,04,16,10,59,11.60
2015,04,16,11,00,11.70
2015,04,16,11,01,11.80
2015,04,16,11,02,11.80
2015,04,16,11,03,11.80
2015,04,16,11,04,11.90
2015,04,16,11,05,11.90
2015,04,16,11,06,11.90
2015,04,16,11,07,11.90
2015,04,16,11,08,11.90
2015,04,16,11,09,11.70
2015,04,16,11,10,11.70
2015,04,16,11,11,11.70
2015,04,16,11,12,11.70
2015,04,16,11,13,11.80
2015,04,16,11,14,11.80
2015,04,16,11,15,11.90
2015,04,16,11,16,12.00
2015,04,16,11,17,12.10
2015,04,16,11,18,12.10
2015,04,16,11,19,12.00
2015,04,16,11,20,12.00
2015,04,16,11,21,12.10
2015,04,16,11,22,12.20
2015,04,16,11,23,12.20
2015,04,16,11,24,12.30
2015,04,16,11,25,12.30
2015,04,16,11,26,12.30
2015,04,16,11,27,12.30
2015,04,16,11,28,12.40
2015,04,16,11,29,12.40
2015,04,16,11,30,12.50
2015,04,16,11,31,12.60
2015,04,16,11,32,12.50
2015,04,16,11,33,12.40
2015,04,16,11,34,12.20
2015,04,16,11,35,12.00
2015,04,16,11,36,11.90
2015,04,16,11,37,11.80
2015,04,16,11,38,11.80
2015,04,16,11,39,11.80
2015,04,16,11,40,11.80
2015,04,16,11,41,11.90
2015,04,16,11,42,11.90
2015,04,16,11,43,11.90
2015,04,16,11,44,11.90
2015,04,16,11,45,11.90
2015,04,16,11,46,11.80
2015,04,16,11,47,11.80
2015,04,16,11,48,11.70
2015,04,16,11,49,11.60
2015,04,16,11,50,11.70
2015,04,16,11,51,11.80
2015,04,16,11,52,12.00
2015,04,16,11,53,12.10
2015,04,16,11,54,12.20
2015,04,16,11,55,12.20
2015,04,16,11,56,12.30
2015,04,16,11,57,12.40
2015,04,16,11,58,12.60
2015,04,16,11,59,12.70
2015,04,16,12,00,12.70
2015,04,16,12,01,12.70
2015,04,16,12,02,12.80
2015,04,16,12,03,12.70
2015,04,16,12,04,12.80
2015,04,16,12,05,12.90
2015,04,16,12,06,13.00
2015,04,16,12,07,13.10
2015,04,16,12,08,13.20
2015,04,16,12,09,13.30
2015,04,16,12,10,13.30
2015,04,16,12,11,13.30
2015,04,16,12,12,13.20
2015,04,16,12,13,13.20
2015,04,16,12,14,13.20
2015,04,16,12,15,13.20
2015,04,16,12,16,13.10
2015,04,16,12,17,13.00
2015,04,16,12,18,12.90
2015,04,16,12,19,12.80
2015,04,16,12,20,12.80
2015,04,16,12,21,12.90
2015,04,16,12,22,13.00
2015,04,16,12,23,13.10
2015,04,16,12,24,13.20
2015,04,16,12,25,13.40
2015,04,16,12,26,13.50
2015,04,16,12,27,13.50
2015,04,16,12,28,13.60
2015,04,16,12,29,13.70
2015,04,16,12,30,13.70
2015,04,16,12,31,13.80
2015,04,16,12,32,13.80
2015,04,16,12,33,13.90
2015,04,16,12,34,13.90
2015,04,16,12,35,13.90
2015,04,16,12,36,13.90
2015,04,16,12,37,13.70
2015,04,16,12,38,13.60
2015,04,16,12,39,13.60
2015,04,16,12,40,13.60
2015,04,16,12,41,13.60
2015,04,16,12,42,13.60
2015,04,16,12,43,13.50
2015,04,16,12,44,13.50
2015,04,16,12,45,13.40
2015,04,16,12,46,13.30
2015,04,16,12,47,13.10
2015,04,16,12,48,13.00
2015,04,16,12,49,12.90
2015,04,16,12,50,12.90
2015,04,16,12,51,12.90
2015,04,16,12,52,13.00
2015,04,16,12,53,13.10
2015,04,16,12,54,13.10
2015,04,16,12,55,13.10
2015,04,16,12,56,13.00
2015,04,16,12,57,13.10
2015,04,16,12,58,13.20
2015,04,16,12,59,13.30
2015,04,16,13,00,13.50
2015,04,16,13,01,13.60
2015,04,16,13,02,13.70
2015,04,16,13,03,13.80
2015,04,16,13,04,13.90
2015,04,16,13,05,14.00
2015,04,16,13,06,14.00
2015,04,16,13,07,14.10
2015,04,16,13,08,14.10
2015,04,16,13,09,14.10
2015,04,16,13,10,14.10
2015,04,16,13,11,14.10
2015,04,16,13,12,14.10
2015,04,16,13,13,14.00
2015,04,16,13,14,14.00
2015,04,16,13,15,14.00
2015,04,16,13,16,14.10
2015,04,16,13,17,14.10
2015,04,16,13,18,14.10
2015,04,16,13,19,14.10
2015,04,16,13,20,14.10
2015,04,16,13,21,14.20
2015,04,16,13,22,14.20
2015,04,16,13,23,14.20
2015,04,16,13,24,14.30
2015,04,16,13,25,14.40
2015,04,16,13,26,14.50
2015,04,16,13,27,14.60
2015,04,16,13,28,14.60
2015,04,16,13,29,14.60
2015,04,16,13,30,14.70
2015,04,16,13,31,14.80
2015,04,16,13,32,14.80
2015,04,16,13,33,14.90
2015,04,16,13,34,15.10
2015,04,16,13,35,15.10
2015,04,16,13,36,15.10
2015,04,16,13,37,15.10
2015,04,16,13,38,15.10
2015,04,16,13,39,15.00
2015,04,16,13,40,14.90
2015,04,16,13,41,14.80
2015,04,16,13,42,14.80
2015,04,16,13,43,14.80
2015,04,16,13,44,14.80
2015,04,16,13,45,14.80
2015,04,16,13,46,14.80
2015,04,16,13,47,14.80
2015,04,16,13,48,14.80
2015,04,16,13,49,14.80
2015,04,16,13,50,14.80
2015,04,16,13,51,14.80
2015,04,16,13,52,14.80
2015,04,16,13,53,14.90
2015,04,16,13,54,14.90
2015,04,16,13,55,14.80
2015,04,16,13,56,14.80
2015,04,16,13,57,14.80
2015,04,16,13,58,14.80
2015,04,16,13,59,14.90
2015,04,16,14,00,15.00
2015,04,16,14,01,15.10
2015,04,16,14,02,15.20
2015,04,16,14,03,15.20
2015,04,16,14,04,15.20
2015,04,16,14,05,15.20
2015,04,16,14,06,15.20
2015,04,16,14,07,15.20
2015,04,16,14,08,15.20
2015,04,16,14,09,15.20
2015,04,16,14,10,15.30
2015,04,16,14,11,15.30
2015,04,16,14,12,15.20
2015,04,16,14,13,15.10
2015,04,16,14,14,15.20
2015,04,16,14,15,15.30
2015,04,16,14,16,15.40
2015,04,16,14,17,15.40
2015,04,16,14,18,15.50
2015,04,16,14,19,15.60
2015,04,16,14,20,15.60
2015,04,16,14,21,15.50
2015,04,16,14,22,15.50
2015,04,16,14,23,15.40
2015,04,16,14,24,15.30
2015,04,16,14,25,15.30
2015,04,16,14,26,15.30
2015,04,16,14,27,15.30
2015,04,16,14,28,15.40
2015,04,16,14,29,15.50
2015,04,16,14,30,15.50
2015,04,16,14,31,15.50
2015,04,16,14,32,15.40
2015,04,16,14,33,15.30
2015,04,16,14,34,15.30
2015,04,16,14,35,15.30
2015,04,16,14,36,15.40
2015,04,16,14,37,15.50
2015,04,16,14,38,15.60
2015,04,16,14,39,15.60
2015,04,16,14,40,15.60
2015,04,16,14,41,15.70
2015,04,16,14,42,15.60
2015,04,16,14,43,15.60
2015,04,16,14,44,15.60
2015,04,16,14,45,15.50
2015,04,16,14,46,15.60
2015,04,16,14,47,15.60
2015,04,16,14,48,15.70
2015,04,16,14,49,15.70
2015,04,16,14,50,15.70
2015,04,16,14,51,15.70
2015,04,16,14,52,15.70
2015,04,16,14,53,15.70
2015,04,16,14,54,15.70
2015,04,16,14,55,15.80
2015,04,16,14,56,15.80
2015,04,16,14,57,16.00
2015,04,16,14,58,16.10
2015,04,16,14,59,16.10
2015,04,16,15,00,16.10
2015,04,16,15,01,16.20
2015,04,16,15,02,16.20
2015,04,16,15,03,16.20
2015,04,16,15,04,16.10
2015,04,16,15,05,16.10
2015,04,16,15,06,16.10
2015,04,16,15,07,16.10
2015,04,16,15,08,16.10
2015,04,16,15,09,16.10
2015,04,16,15,10,16.10
2015,04,16,15,11,16.10
2015,04,16,15,12,16.10
2015,04,16,15,13,16.10
2015,04,16,15,14,15.90
2015,04,16,15,15,15.80
2015,04,16,15,16,15.80
2015,04,16,15,17,15.80
2015,04,16,15,18,15.80
2015,04,16,15,19,15.90
2015,04,16,15,20,15.90
2015,04,16,15,21,16.00
2015,04,16,15,22,16.10
2015,04,16,15,23,16.10
2015,04,16,15,24,16.10
2015,04,16,15,25,16.20
2015,04,16,15,26,16.20
2015,04,16,15,27,16.20
2015,04,16,15,28,16.10
2015,04,16,15,29,16.10
2015,04,16,15,30,16.00
2015,04,16,15,31,15.90
2015,04,16,15,32,15.90
2015,04,16,15,33,15.80
2015,04,16,15,34,15.80
2015,04,16,15,35,15.80
2015,04,16,15,36,15.80
2015,04,16,15,37,15.80
2015,04,16,15,38,15.90
2015,04,16,15,39,16.00
2015,04,16,15,40,16.10
2015,04,16,15,41,16.10
2015,04,16,15,42,16.20
2015,04,16,15,43,16.20
2015,04,16,15,44,16.10
2015,04,16,15,45,16.10
2015,04,16,15,46,16.20
2015,04,16,15,47,16.20
2015,04,16,15,48,16.30
2015,04,16,15,49,16.40
2015,04,16,15,50,16.40
2015,04,16,15,51,16.40
2015,04,16,15,52,16.40
2015,04,16,15,53,16.40
2015,04,16,15,54,16.40
2015,04,16,15,55,16.40
2015,04,16,15,56,16.30
2015,04,16,15,57,16.30
2015,04,16,15,58,16.40
2015,04,16,15,59,16.40
2015,04,16,16,00,16.40
2015,04,16,16,01,16.40
2015,04,16,16,02,16.40
2015,04,16,16,03,16.40
2015,04,16,16,04,16.40
2015,04,16,16,05,16.40
2015,04,16,16,06,16.50
2015,04,16,16,07,16.60
2015,04,16,16,08,16.70
2015,04,16,16,09,16.80
2015,04,16,16,10,16.90
2015,04,16,16,11,17.10
2015,04,16,16,12,17.20
2015,04,16,16,13,17.30
2015,04,16,16,14,17.10
2015,04,16,16,15,17.00
2015,04,16,16,16,17.00
2015,04,16,16,17,17.00
2015,04,16,16,18,17.20
2015,04,16,16,19,17.30
2015,04,16,16,20,17.40
2015,04,16,16,21,17.40
2015,04,16,16,22,17.50
2015,04,16,16,23,17.50
2015,04,16,16,24,17.50
2015,04,16,16,25,17.50
2015,04,16,16,26,17.40
2015,04,16,16,27,17.40
2015,04,16,16,28,17.40
2015,04,16,16,29,17.30
2015,04,16,16,30,17.20
2015,04,16,16,31,17.20
2015,04,16,16,32,17.20
2015,04,16,16,33,17.20
2015,04,16,16,34,17.10
2015,04,16,16,35,17.10
2015,04,16,16,36,17.10
2015,04,16,16,37,17.20
2015,04,16,16,38,17.30
2015,04,16,16,39,17.40
2015,04,16,16,40,17.50
2015,04,16,16,41,17.60
2015,04,16,16,42,17.60
2015,04,16,16,43,17.70
2015,04,16,16,44,17.70
2015,04,16,16,45,17.50
2015,04,16,16,46,17.40
2015,04,16,16,47,17.20
2015,04,16,16,48,17.00
2015,04,16,16,49,16.80
2015,04,16,16,50,16.70
2015,04,16,16,51,16.60
2015,04,16,16,52,16.40
2015,04,16,16,53,16.30
2015,04,16,16,54,16.30
2015,04,16,16,55,16.30
2015,04,16,16,56,16.30
2015,04,16,16,57,16.30
2015,04,16,16,58,16.40
2015,04,16,16,59,16.50
2015,04,16,17,00,16.60
2015,04,16,17,01,16.70
2015,04,16,17,02,16.70
2015,04,16,17,03,16.50
2015,04,16,17,04,16.40
2015,04,16,17,05,16.40
2015,04,16,17,06,16.30
2015,04,16,17,07,16.30
2015,04,16,17,08,16.30
2015,04,16,17,09,16.30
2015,04,16,17,10,16.30
2015,04,16,17,11,16.30
2015,04,16,17,12,16.30
2015,04,16,17,13,16.30
2015,04,16,17,14,16.30
2015,04,16,17,15,16.30
2015,04,16,17,16,16.30
2015,04,16,17,17,16.30
2015,04,16,17,18,16.30
2015,04,16,17,19,16.30
2015,04,16,17,20,16.40
2015,04,16,17,21,16.40
2015,04,16,17,22,16.40
2015,04,16,17,23,16.40
2015,04,16,17,24,16.40
2015,04,16,17,25,16.40
2015,04,16,17,26,16.40
2015,04,16,17,27,16.30
2015,04,16,17,28,16.20
2015,04,16,17,29,16.30
2015,04,16,17,30,16.30
2015,04,16,17,31,16.20
2015,04,16,17,32,16.00
2015,04,16,17,33,15.90
2015,04,16,17,34,15.70
2015,04,16,17,35,15.60
2015,04,16,17,36,15.50
2015,04,16,17,37,15.50
2015,04,16,17,38,15.50
2015,04,16,17,39,15.50
2015,04,16,17,40,15.50
2015,04,16,17,41,15.50
2015,04,16,17,42,15.50
2015,04,16,17,43,15.50
2015,04,16,17,44,15.60